Lexington Weather

Lexington, Massachusetts, USA

72°F
9/22/2021 2:29pm 
  • Lexington Conditions: Overcast
  • Temperature: 71.8°F / 22.1°CColder 2.9°F than last hour.
  • Dew Point: 69.1°FIncreased 1.1°Fsince last hour.
  • Relative Humidity: 91%Increased 11.0% since last hour.
  • Wind: Wind from SE SE 9 mph, 10-min avg: 3 mph, gust: 13 mph
  • Barometer: 30.08 inFalling 0.02  inHg/hr Falling Slowly
  • Visibility: 10 miles
  • Rain Today: 0.00 in
  •   

Regional Weather Roundup
for Boston / Norton, MA

        
000
ASUS41 KBOX 160204
RWRBOX

REGIONAL WEATHER ROUNDUP
NATIONAL WEATHER SERVICE BOSTON/NORTON MA
1000 PM EDT WED SEP 15 2021

NOTE:  "FAIR" INDICATES FEW OR NO CLOUDS BELOW 12,000 FEET WITH NO 
SIGNIFICANT WEATHER AND/OR OBSTRUCTIONS TO VISIBILITY.

MAZALL-160300-
EASTERN MASSACHUSETTS
  
CITY           SKY/WX    TMP DP  RH WIND       PRES   REMARKS
BOSTON         CLOUDY    78  68  71 SW10      30.03R                  
BEVERLY        MOCLDY    74  35  24 W5        30.01R                  
LAWRENCE       MOCLDY    69  67  93 W3        30.05R                  
BEDFORD        MOCLDY    69  68  96 W5        30.02R                  
BLUE HILL      NOT AVBL                                               
NORWOOD        CLOUDY    77  69  76 SW6       30.03R                  
MARSHFIELD     PTCLDY    73  68  83 SW14G22   30.03R                  
PLYMOUTH       PTCLDY    72  69  90 S8        30.05R                  
TAUNTON        PTCLDY    73  69  87 SW8       30.04R                  
NEW BEDFORD    PTCLDY    74  71  91 SW12G21   30.05R                  
$$

MAZALL-160300-
CAPE COD AND THE ISLANDS
  
CITY           SKY/WX    TMP DP  RH WIND       PRES   REMARKS
FALMOUTH       CLEAR     73  72  94 SW20G26   30.06R                  
HYANNIS        MOCLDY    74  73  97 SW15G23   30.05R                  
CHATHAM        CLOUDY    73  71  93 SW9       30.07R                  
PROVINCETOWN   PTCLDY    71  69  93 SW14      30.05R                  
NANTUCKET      CLEAR     73  71  93 S10       30.08R FOG              
MARTHAS VNYRD  MOCLDY    72  72 100 S13       30.06S                  
$$
 
MAZALL-160300-
CENTRAL AND WESTERN MASSACHUSETTS
  
CITY           SKY/WX    TMP DP  RH WIND       PRES   REMARKS
WORCESTER      MOCLDY    67  64  90 SW5       30.08R                  
FITCHBURG      CLOUDY    68  67  96 CALM      30.05R                  
ORANGE         CLOUDY    68  67  96 S3        30.07R                  
SPRINGFIELD    MOCLDY    68  68 100 CALM      30.04R                  
WESTFIELD      CLOUDY    69  69 100 CALM      30.05R                  
NORTH ADAMS    LGT RAIN  67  64  90 CALM      30.05F                  
PITTSFIELD     CLOUDY    65  63  93 W3        30.07S                  
$$
 
RIZALL-160300-
RHODE ISLAND
  
CITY           SKY/WX    TMP DP  RH WIND       PRES   REMARKS
PROVIDENCE     MOCLDY    73  70  90 SW12      30.05R                  
NEWPORT        CLOUDY    72  71  97 SW8       30.06R                  
BLOCK ISLAND   CLEAR     71  69  93 SW17      30.07R                  
SMITHFIELD     MOCLDY    72  69  90 W6        30.07R                  
WESTERLY       CLOUDY    71  71 100 SW6G16    30.06R                  
$$
 
CTZALL-160300-
CONNECTICUT
  
CITY           SKY/WX    TMP DP  RH WIND       PRES   REMARKS
BRADLEY INTL   MOCLDY    73  64  73 NE5       30.04R                  
HARTFORD       LGT RAIN  72  67  84 CALM      30.04R                  
BRIDGEPORT     PTCLDY    76  70  82 W7        30.03R                  
DANBURY        MOCLDY    74  66  76 CALM      30.07R                  
GROTON         MOCLDY    74  70  87 SW13      30.04R                  
NEW HAVEN      PTCLDY    77  71  82 VRB5      30.03R                  
CHESTER        FAIR      73  70  88 VRB7G13   30.05R                  
MERIDEN        CLOUDY    75  69  81 CALM      30.04R                  
WILLIMANTIC    CLOUDY    74  69  85 VRB3      30.05R                  
OXFORD         LGT RAIN  71  67  87 N8        30.07R                  
$$

MEZ002-015-021-024-NHZ003-005-008-011-012-014-VTZ005-008-160300-
NORTHERN NEW ENGLAND
  
CITY           SKY/WX    TMP DP  RH WIND       PRES   REMARKS
PORTLAND ME    LGT RAIN  67  66  97 W7        30.01R                  
BANGOR ME      CLOUDY    66  66 100 S6        29.98R FOG              
CONCORD NH     CLOUDY    66  64  93 CALM      30.03R                  
MANCHESTER NH  CLOUDY    70  66  87 CALM      30.01S                  
NASHUA NH      CLOUDY    67  67 100 CALM      30.04R                  
PORTSMOUTH NH  MOCLDY    68  66  92 W3        30.02S                  
JAFFREY NH     CLOUDY    66  66 100 S3        30.08R                  
KEENE NH       CLOUDY    67  67 100 CALM      30.05R                  
BURLINGTON VT  CLOUDY    63  58  83 N8        30.07R                  
MT. WASHINGTON LGT RAIN  48  48 100 W43G52      N/A  VSB 0            
$$

NYZ052-076-160300-
EASTERN NEW YORK
  
CITY           SKY/WX    TMP DP  RH WIND       PRES   REMARKS
ALBANY         LGT RAIN  63  63 100 CALM      30.06R                  
NEW YORK CITY  MOCLDY    81  67  62 SW10      30.02R                  
$$
 
ANZALL-160300-
MARINE OBSERVATIONS
  
STATION/POSITION TIME  TEMP    WIND        PRES    VSBY  WAVE
                       AIR SEA DIR/SP/G                  HT/PER
                 (UTC) (F)     (DEG/KT/KT) (MB)    (MI)  (FT/S)
BOSTON BUOY      0140      65  240/  6/ 10 1017.0R
BUZZARDS BAY     0100          200/ 21/ 23 1018.1R
NANTUCKET SOUND  0140   74 72  200/ 16/ 19 1017.6S
MASS BAY-STELLWA 0104   68     200/ 10/ 12 1015.7R  1 7/8  3/ 5
ISLE OF SHOALS   0100   71     280/  5/  5 1015.3R
S OF BLOCK IS    0126      70                N/A           4/ 6
$$

......................KEY.........................
  SKY/WX - SKY CONDITION/PRESENT WEATHER
  TMP    - TEMPERATURE IN FAHRENHEIT
  DWPT   - DEWPOINT IN FAHRENHEIT
  RH     - RELATIVE HUMIDITY IN PERCENT
  WIND   - DIRECTION AND SPEED IN MPH
  PRES   - MEAN SEA LEVEL PRESSURE IN INCHES OF HG
  WCI    - WIND CHILL INDEX
  VSB    - VISIBILITY IN MILES
  HX     - HEAT INDEX
  TC     - TEMPERATURE IN CELSIUS
  VRB    - VARIABLE WIND DIRECTION
  N/A    - NOT AVAILABLE
  
      

Other recent Regional Weather Roundups

Wed Sep 22, 2:04pm

Wed Sep 22, 1:04pm

Wed Sep 22, 12:05pm

Wed Sep 22, 11:04am

Wed Sep 22, 10:04am

Wed Sep 22, 9:04am

Wed Sep 22, 8:04am

Wed Sep 22, 7:04am

Wed Sep 22, 6:04am

Wed Sep 22, 5:04am

Wed Sep 22, 4:04am

Wed Sep 22, 3:04am

Wed Sep 22, 2:04am

Wed Sep 22, 1:04am

Wed Sep 22, 12:04am

Tue Sep 21, 11:04pm

Tue Sep 21, 10:04pm

Tue Sep 21, 9:04pm

Tue Sep 21, 8:04pm

Tue Sep 21, 7:04pm

Tue Sep 21, 6:04pm

Tue Sep 21, 5:04pm

Tue Sep 21, 4:04pm

Tue Sep 21, 3:04pm

Tue Sep 21, 2:04pm

Tue Sep 21, 1:04pm

Tue Sep 21, 12:04pm

Tue Sep 21, 11:04am

Tue Sep 21, 10:04am

Tue Sep 21, 9:04am

Tue Sep 21, 8:04am

Tue Sep 21, 7:04am

Tue Sep 21, 6:04am

Tue Sep 21, 5:04am

Tue Sep 21, 4:04am

Tue Sep 21, 3:04am

Tue Sep 21, 2:04am

Tue Sep 21, 1:04am

Tue Sep 21, 12:04am

Mon Sep 20, 11:04pm

Mon Sep 20, 10:04pm

Mon Sep 20, 9:04pm

Mon Sep 20, 8:04pm

Mon Sep 20, 7:04pm

Mon Sep 20, 6:04pm

Mon Sep 20, 5:04pm

Mon Sep 20, 4:04pm

Mon Sep 20, 3:04pm

Mon Sep 20, 2:04pm

Mon Sep 20, 1:04pm

Mon Sep 20, 12:04pm

Mon Sep 20, 11:04am

Mon Sep 20, 10:04am

Mon Sep 20, 9:04am

Mon Sep 20, 7:04am

Mon Sep 20, 6:04am

Mon Sep 20, 5:04am

Mon Sep 20, 4:04am

Mon Sep 20, 3:04am

Mon Sep 20, 2:04am

Mon Sep 20, 1:04am

Mon Sep 20, 12:04am

Sun Sep 19, 11:04pm

Sun Sep 19, 10:04pm

Sun Sep 19, 9:04pm

Sun Sep 19, 8:04pm

Sun Sep 19, 7:04pm

Sun Sep 19, 6:04pm

Sun Sep 19, 5:04pm

Sun Sep 19, 4:04pm

Sun Sep 19, 3:04pm

Sun Sep 19, 2:05pm

Sun Sep 19, 1:04pm

Sun Sep 19, 12:04pm

Sun Sep 19, 11:04am

Sun Sep 19, 10:05am

Sun Sep 19, 9:04am

Sun Sep 19, 8:04am

Sun Sep 19, 7:04am

Sun Sep 19, 6:04am

Sun Sep 19, 5:04am

Sun Sep 19, 4:04am

Sun Sep 19, 3:04am

Sun Sep 19, 2:04am

Sun Sep 19, 1:04am

Sun Sep 19, 12:04am

Sat Sep 18, 11:05pm

Sat Sep 18, 10:04pm

Sat Sep 18, 9:04pm

Sat Sep 18, 8:04pm

Sat Sep 18, 7:04pm

Sat Sep 18, 6:04pm

Sat Sep 18, 5:04pm

Sat Sep 18, 4:04pm

Sat Sep 18, 3:04pm

Sat Sep 18, 2:04pm

Sat Sep 18, 1:04pm

Sat Sep 18, 12:04pm

Sat Sep 18, 11:04am

Sat Sep 18, 10:04am

Sat Sep 18, 9:04am

Sat Sep 18, 8:04am

Sat Sep 18, 7:04am

Sat Sep 18, 6:04am

Sat Sep 18, 5:04am

Sat Sep 18, 4:04am

Sat Sep 18, 3:04am

Sat Sep 18, 2:04am

Sat Sep 18, 1:04am

Sat Sep 18, 12:04am

Fri Sep 17, 11:04pm

Fri Sep 17, 10:04pm

Fri Sep 17, 9:04pm

Fri Sep 17, 8:04pm

Fri Sep 17, 7:04pm

Fri Sep 17, 6:04pm

Fri Sep 17, 5:04pm

Fri Sep 17, 4:04pm

Fri Sep 17, 3:04pm

Fri Sep 17, 2:04pm

Fri Sep 17, 1:04pm

Fri Sep 17, 12:05pm

Fri Sep 17, 11:04am

Fri Sep 17, 10:04am

Fri Sep 17, 9:04am

Fri Sep 17, 8:04am

Fri Sep 17, 7:04am

Fri Sep 17, 6:04am

Fri Sep 17, 5:04am

Fri Sep 17, 4:04am

Fri Sep 17, 3:04am

Fri Sep 17, 2:04am

Fri Sep 17, 1:04am

Fri Sep 17, 12:04am

Thu Sep 16, 11:04pm

Thu Sep 16, 10:04pm

Thu Sep 16, 9:04pm

Thu Sep 16, 8:04pm

Thu Sep 16, 7:04pm

Thu Sep 16, 6:04pm

Thu Sep 16, 5:04pm

Thu Sep 16, 4:04pm

Thu Sep 16, 3:04pm

Thu Sep 16, 2:04pm

Thu Sep 16, 1:05pm

Thu Sep 16, 12:04pm

Thu Sep 16, 11:05am

Thu Sep 16, 10:05am

Thu Sep 16, 9:04am

Thu Sep 16, 8:04am

Thu Sep 16, 7:04am

Thu Sep 16, 6:04am

Thu Sep 16, 5:04am

Thu Sep 16, 4:04am

Thu Sep 16, 3:04am

Thu Sep 16, 2:04am

Thu Sep 16, 1:04am

Thu Sep 16, 12:04am

Wed Sep 15, 11:04pm

Wed Sep 15, 9:04pm

Wed Sep 15, 8:04pm

Wed Sep 15, 7:04pm

Wed Sep 15, 6:04pm

Wed Sep 15, 5:05pm

Wed Sep 15, 4:04pm

Wed Sep 15, 3:04pm

Meta data:

ID: fdc19dec-0c1e-4e97-956d-c206d78441b4
Link: https://api.weather.gov/products/fdc19dec-0c1e-4e97-956d-c206d78441b4